Location: Meanaryar
(48.4161°N, 4.7315°W)
Time: 10:49:04
(UTC+00:00)

Landsat 7 - Pass Details

Date: 18 September 2020
Orbit: 701 x 703 km, 98.1° (Epoch: 24 October)

Event Time Altitude Azimuth Distance (km) Brightness Sun altitude
Exits shadow 21:04:38 59° 34° (NE) 813 4.0 -25.7°
Drops below altitude 10° 21:08:48 10° 352° (N) 2,183 6.9 -26.3°
Sets 21:11:05 0° 349° (N) 3,106 7.8 -26.6°
